Regional Weather Roundup
Issued by NWS

Home | Current Version | Previous Version | Graphics & Text | Print | Product List | Glossary On
Versions: 1 2 3 4 5 6 7 8 9 10 11 12 13 14 15 16 17 18 19 20 21 22 23 24 25 26 27 28 29 30 31 32 33 34 35 36 37 38 39 40 41 42 43 44 45 46 47 48 49 50
000
ASUS43 KBIS 031802
RWRND

NORTH DAKOTA REGIONAL WEATHER ROUNDUP
NATIONAL WEATHER SERVICE BISMARCK ND
100 PM CDT THU SEP 03 2015

NOTE: "FAIR" INDICATES FEW OR NO CLOUDS BELOW 12,000 FEET WITH NO
SIGNIFICANT WEATHER AND/OR OBSTRUCTIONS TO VISIBILITY.


NDZ001>003-009>011-017-031900-
NORTHWEST NORTH DAKOTA

CITY           SKY/WX    TMP DP  RH WIND       PRES   REMARKS
WILLISTON      MOSUNNY   84  58  40 NW14      29.72R
6HR MIN TEMP:  64; 6HR MAX TEMP:  85;

MINOT          SUNNY     88  67  49 SE10      29.63F HX  91
$$

NDZ018>021-031>035-040>046-031900-
SOUTHWEST NORTH DAKOTA

CITY           SKY/WX    TMP DP  RH WIND       PRES   REMARKS
BISMARCK       SUNNY     91  62  37 SE12      29.68F HX  91
6HR MIN TEMP:  66; 6HR MAX TEMP:  92;

DICKINSON      MOSUNNY   91  48  22 W15G22    29.71R
GARRISON         N/A     87  64  46 S10       29.65F
6HR MIN TEMP:  68; 6HR MAX TEMP:  87;

HETTINGER ARPT SUNNY     88  46  23 W17       29.75R
$$

NDZ004>008-012>016-024-026-027-054-031900-
NORTHEAST NORTH DAKOTA

CITY           SKY/WX    TMP DP  RH WIND       PRES   REMARKS
GRAND FORKS    MOSUNNY   86  71  60 S23G31    29.73F HX  91
GRND FRKS AFB  SUNNY     84  72  67 S20G26    29.74F
DEVILS LAKE    SUNNY     81  68  65 SE17G24   29.71S
$$

NDZ022-023-025-028>030-036>039-047>053-031900-
SOUTHEAST NORTH DAKOTA

CITY           SKY/WX    TMP DP  RH WIND       PRES   REMARKS
FARGO          SUNNY     88  71  57 SE16G32   29.77F HX  94
6HR MIN TEMP:  73; 6HR MAX TEMP:  88;

JAMESTOWN      SUNNY     87  70  56 S17G23    29.73F HX  92
$$



USA.gov is the U.S. government's official web portal to all federal, state and local government web resources and services.